Location: Long Island Community Building
(39.9491°N, 99.5338°W)
Time: 08:50:57
(UTC+00:00)

Daily predictions for brighter satellites

Satellite Brightness Start Highest point End
(mag) Time Altitude Azimuth Time Altitude Azimuth Time Altitude Azimuth
ALOS 2.2 12:02:07 10° NNE 12:06:49 87° ESE 12:11:29 10° SSW
STARLINK-55 3.7 12:06:19 45° W 12:07:06 53° SW 12:11:01 10° SSE
GEOS 3 Rocket 4.1 12:03:58 10° S 12:08:41 39° WSW 12:10:19 30° W
STARLINK-28 3.8 12:07:58 42° W 12:08:48 51° SW 12:12:41 10° SSE
Cosmos 2082 4.4 12:10:26 29° WNW 12:10:48 29° WNW 12:15:41 10° N
STARLINK-53 3.9 12:11:05 38° W 12:12:03 47° SW 12:15:55 10° SSE
PSLV R/B 4.1 12:08:25 10° N 12:12:19 44° WNW 12:16:14 10° SW
CZ-4C R/B 3.0 12:07:07 17° NW 12:13:13 85° WSW 12:21:35 10° SSE
Cosmos 1484 Rocket 3.2 12:09:41 10° N 12:13:25 40° WNW 12:17:03 10° SW
SJ-12 3.9 12:09:28 10° N 12:13:32 60° WNW 12:17:35 10° SSW
STARLINK-54 4.0 12:12:45 37° W 12:13:45 45° SW 12:17:35 10° SSE
Cosmos 1452 Rocket 4.5 12:08:58 10° S 12:14:01 50° ESE 12:19:08 10° NNE
Cosmos 2237 Rocket 4.1 12:18:24 11° WSW 12:18:24 11° WSW 12:18:58 10° SW
NOAA 6 4.2 12:11:31 10° NNE 12:16:40 76° ESE 12:21:46 10° S
STARLINK-34 4.1 12:15:54 33° W 12:17:01 42° SW 12:20:49 10° SSE
Cosmos 1933 Rocket 3.7 12:14:01 10° SSW 12:18:10 46° W 12:22:22 10° N
Cosmos 1371 Rocket 4.3 12:14:46 10° SW 12:19:44 42° WNW 12:24:42 10° N
METEOR-M 4.0 12:14:39 10° N 12:19:59 75° WNW 12:25:19 10° SSW
PSLV R/B 2.7 12:19:47 52° SSW 12:20:09 63° SSE 12:22:35 10° E
STARLINK-81 4.0 12:18:49 32° W 12:20:09 43° SW 12:23:58 10° SSE
Cosmos 1092 Rocket 3.9 12:14:16 10° N 12:20:29 86° W 12:26:37 10° S
STARLINK-24 4.2 12:20:40 29° W 12:21:57 38° SW 12:25:41 10° SSE
ATLAS 5 CENTAUR R/B 3.5 12:23:47 14° NNW 12:23:47 14° NNW 12:25:57 10° N
STARLINK-77 4.1 12:22:01 29° W 12:23:27 40° SW 12:27:13 10° SSE
Meteor 1-20 Rocket 4.3 12:18:31 10° S 12:24:20 89° W 12:30:13 10° N
STARLINK-25 4.2 12:23:35 28° W 12:25:05 39° SW 12:28:50 10° SSE
STARLINK-71 4.4 12:25:27 26° W 12:26:53 34° SW 12:30:31 10° SSE
Okean 1-7 3.1 12:22:54 10° N 12:27:20 82° E 12:31:43 10° S
Cosmos 407 Rocket 3.8 12:23:36 15° NNW 12:27:48 48° WSW 12:32:54 10° S
STARLINK-79 4.3 12:26:46 25° W 12:28:22 36° SW 12:32:03 10° SSE
Cosmos 614 Rocket 4.3 12:25:23 17° NW 12:28:56 43° WSW 12:33:44 10° S
STARLINK-78 4.4 12:28:24 24° W 12:30:03 35° SW 12:33:42 10° SSE
STARLINK-57 4.5 12:30:07 23° W 12:31:46 32° SW 12:35:21 10° SSE
STARLINK-49 4.5 12:31:33 22° W 12:33:19 33° SW 12:36:55 10° SSE
Cosmos 1140 Rocket 3.5 12:31:24 10° NNW 12:36:31 59° WSW 12:41:37 10° S
Cosmos 1812 4.4 12:39:10 15° W 12:39:10 15° W 12:40:52 10° SW
COSMO-SKYMED 1 3.4 12:35:37 10° SSW 12:39:26 30° W 12:42:57 12° NW
CZ-4B DEB 4.5 12:34:14 10° N 12:39:27 46° WNW 12:44:42 10° SW
Cosmos 1346 Rocket 3.5 12:36:00 10° S 12:39:45 54° E 12:43:33 10° NNE
Okean O Rocket 1.7 12:37:16 10° N 12:41:32 53° WNW 12:45:49 10° SSW
Cosmos 1461 2.9 12:46:56 10° NNW 12:51:12 86° WSW 12:55:36 10° SSE
Cosmos 2263 Rocket 2.2 12:49:51 10° SW 12:55:23 64° WNW 13:00:56 10° NNE
Timation 1 Rocket 4.3 12:52:09 10° SSW 12:58:06 77° WNW 13:04:05 10° NNE
Cosmos 1703 Rocket 4.2 12:54:07 10° NNW 12:58:11 36° W 13:02:14 10° SSW
Meteor 1-14 Rocket 4.3 12:52:35 10° SSW 12:58:26 67° WNW 13:04:24 10° N
Cosmos 2084 Rocket 3.6 12:57:41 10° NW 13:02:05 64° WSW 13:06:25 10° SSE
Helios 1A Rocket 3.6 12:58:41 10° N 13:02:15 31° WNW 13:05:48 10° SW
Orbus 7S? 2.8 12:59:29 10° SW 13:02:28 66° SE 13:04:56 10° NE
H-2A R/B 2.6 13:03:07 10° N 13:06:50 77° WNW 13:10:35 10° SSW
Cosmos 1733 Rocket 3.7 13:03:04 10° S 13:07:18 60° E 13:11:34 10° NNE
SWAS 4.4 13:03:23 10° SSW 13:07:40 66° WNW 13:11:59 10° NNE
BREEZE-M DEB (TANK) 1.8 13:07:44 10° NW 13:09:42 55° NNE 13:13:09 10° ESE
Okean 1 3.8 13:08:44 10° NNW 13:12:28 40° W 13:16:11 10° SSW
Cosmos 1869 Rocket 4.2 13:09:10 10° SW 13:13:03 32° WNW 13:16:58 10° NNW
CZ-4B R/B 3.8 13:10:12 10° N 13:15:12 35° WNW 13:20:14 10° SW
IRS-1C Rocket 4.1 13:12:50 10° N 13:18:05 71° WNW 13:23:18 10° SSW
Cosmos 1110 Rocket 4.4 13:15:23 10° S 13:20:33 70° ESE 13:25:43 10° NNE
BREEZE-M DEB (TANK) 3.9 23:26:39 10° SW 23:30:37 69° SE 23:45:55 10° ENE
Cosmos 2237 Rocket 3.4 23:35:16 10° SSE 23:39:36 23° E 23:43:57 10° NE
Cosmos 1331 Rocket 4.0 23:35:06 10° NNW 23:40:23 86° ENE 23:45:38 10° SSE
Cosmos 1602 3.7 23:36:52 10° N 23:40:45 75° E 23:44:37 10° SSE
CZ-4B R/B 4.1 23:39:15 10° NNW 23:41:55 20° WNW 23:44:33 10° WSW
Meteor 1-14 Rocket 4.5 23:36:08 10° N 23:42:06 86° W 23:47:54 10° S
Cosmos 371 Rocket 3.5 23:38:56 10° NNW 23:43:51 81° WSW 23:48:43 10° SSE
Cosmos 2322 Rocket 4.3 23:39:45 10° WSW 23:43:58 21° NW 23:48:15 10° N
Lacrosse 5 rocket 1.9 23:41:00 10° SSW 23:45:12 47° SE 23:49:12 10° NE
Feng Yun 1-1 Rocket 4.3 23:40:07 10° SSE 23:45:22 53° ENE 23:50:36 10° N
Cosmos 1500 4.4 23:42:44 10° NNE 23:45:42 22° ENE 23:48:39 10° SE
H-2A R/B 3.1 23:43:28 10° SE 23:46:57 40° ENE 23:50:26 10° N
Okean-O 3.5 23:44:38 10° SE 23:48:25 28° ENE 23:52:14 10° N
Cosmos 1862 Rocket 4.3 23:44:44 10° SSE 23:48:32 31° E 23:52:22 10° NNE
Cosmos 1340 2.6 23:45:00 10° N 23:48:47 89° ENE 23:52:34 10° S
Cosmos 1110 Rocket 4.4 23:43:49 10° NNW 23:48:59 71° WSW 23:54:09 10° S
Helios 1A Rocket 4.1 23:45:49 10° S 23:49:47 48° W 23:53:47 10° NNW
ATLAS 5 CENTAUR R/B 1.8 23:47:31 10° SSW 23:50:36 35° SE 23:52:28 11° ENE
Cosmos 1844 3.7 23:45:19 10° NNW 23:51:03 88° ENE 23:56:39 10° SSE
AQUARIUS 4.3 23:50:24 10° SSE 23:54:47 55° ENE 23:59:11 10° N
SL-4 R/B 2.4 23:51:54 10° WSW 23:55:29 49° NNW 23:59:21 10° NE
